TimeCDT,TemperatureF,Dew PointF,Humidity,Sea Level PressureIn,VisibilityMPH,Wind Direction,Wind SpeedMPH,Gust SpeedMPH,PrecipitationIn,Events,Conditions,WindDirDegrees,DateUTC
12:13 AM,17.6,12.2,79,30.08,10.0,NNW,13.8,-,N/A,,Scattered Clouds,330,2013-03-15 05:13:00
12:33 AM,17.6,12.2,79,30.08,10.0,NNW,12.7,-,N/A,,Scattered Clouds,340,2013-03-15 05:33:00
12:53 AM,17.6,12.2,79,30.07,10.0,NNW,11.5,-,N/A,,Clear,330,2013-03-15 05:53:00
1:13 AM,15.8,12.2,86,30.08,10.0,NNW,9.2,-,N/A,,Clear,340,2013-03-15 06:13:00
1:33 AM,15.8,12.2,86,30.08,10.0,NNW,9.2,-,N/A,,Clear,330,2013-03-15 06:33:00
1:53 AM,15.8,10.4,79,30.09,10.0,NW,10.4,-,N/A,,Clear,320,2013-03-15 06:53:00
2:14 AM,14.0,10.4,86,30.09,10.0,NW,11.5,-,N/A,,Clear,320,2013-03-15 07:14:00
2:33 AM,14.0,10.4,86,30.10,10.0,NW,10.4,-,N/A,,Clear,320,2013-03-15 07:33:00
2:53 AM,14.0,10.4,86,30.10,10.0,NNW,9.2,-,N/A,,Clear,330,2013-03-15 07:53:00
3:13 AM,12.2,8.6,85,30.11,10.0,NW,9.2,-,N/A,,Clear,320,2013-03-15 08:13:00
3:34 AM,12.2,8.6,85,30.11,10.0,NNW,9.2,-,N/A,,Clear,330,2013-03-15 08:34:00
3:53 AM,10.4,8.6,92,30.11,10.0,NNW,9.2,-,N/A,,Scattered Clouds,330,2013-03-15 08:53:00
4:13 AM,12.2,8.6,85,30.11,10.0,NW,9.2,-,N/A,,Scattered Clouds,320,2013-03-15 09:13:00
4:34 AM,10.4,6.8,85,30.12,10.0,NNW,11.5,-,N/A,,Clear,330,2013-03-15 09:34:00
4:53 AM,10.4,6.8,85,30.12,10.0,NNW,9.2,-,N/A,,Clear,330,2013-03-15 09:53:00
5:13 AM,10.4,6.8,85,30.11,10.0,North,9.2,-,N/A,,Clear,350,2013-03-15 10:13:00
5:34 AM,10.4,6.8,85,30.11,10.0,North,11.5,-,N/A,,Clear,360,2013-03-15 10:34:00
5:53 AM,10.4,6.8,85,30.11,10.0,NNE,10.4,-,N/A,,Clear,20,2013-03-15 10:53:00
6:13 AM,10.4,5.0,79,30.12,10.0,NNE,10.4,-,N/A,,Scattered Clouds,20,2013-03-15 11:13:00
6:34 AM,8.6,3.2,79,30.12,10.0,NNE,10.4,-,N/A,,Overcast,20,2013-03-15 11:34:00
6:53 AM,8.6,3.2,79,30.13,10.0,NNE,13.8,-,N/A,,Overcast,30,2013-03-15 11:53:00
7:13 AM,8.6,1.4,73,30.13,10.0,NE,16.1,-,N/A,,Overcast,40,2013-03-15 12:13:00
7:34 AM,8.6,1.4,73,30.14,10.0,NE,10.4,18.4,N/A,,Mostly Cloudy,40,2013-03-15 12:34:00
7:53 AM,6.8,-0.4,72,30.13,10.0,NE,9.2,-,N/A,,Scattered Clouds,40,2013-03-15 12:53:00
8:13 AM,6.8,-0.4,72,30.13,10.0,NE,8.1,-,N/A,,Clear,40,2013-03-15 13:13:00
8:34 AM,6.8,-0.4,72,30.13,10.0,NE,13.8,-,N/A,,Clear,40,2013-03-15 13:34:00
8:53 AM,6.8,-2.2,67,30.12,10.0,NNE,12.7,17.3,N/A,,Clear,30,2013-03-15 13:53:00
9:13 AM,6.8,-2.2,67,30.13,10.0,NNE,11.5,-,N/A,,Clear,30,2013-03-15 14:13:00
9:34 AM,6.8,-4.0,61,30.14,10.0,NNE,11.5,-,N/A,,Mostly Cloudy,30,2013-03-15 14:34:00
9:53 AM,5.0,-4.0,66,30.14,10.0,NNE,13.8,-,N/A,,Mostly Cloudy,20,2013-03-15 14:53:00
10:13 AM,5.0,-4.0,66,30.13,10.0,NNE,15.0,-,N/A,,Overcast,20,2013-03-15 15:13:00
10:34 AM,5.0,-4.0,66,30.14,10.0,NNE,12.7,-,N/A,,Overcast,20,2013-03-15 15:34:00
10:53 AM,6.8,-4.0,61,30.13,10.0,NNE,12.7,-,N/A,,Scattered Clouds,20,2013-03-15 15:53:00
11:13 AM,6.8,-2.2,67,30.13,10.0,North,11.5,-,N/A,,Clear,10,2013-03-15 16:13:00
11:34 AM,6.8,-4.0,61,30.12,10.0,NNE,12.7,-,N/A,,Clear,30,2013-03-15 16:34:00
11:53 AM,6.8,-2.2,67,30.13,10.0,North,11.5,-,N/A,,Clear,10,2013-03-15 16:53:00
12:13 PM,6.8,-2.2,67,30.12,10.0,North,12.7,-,N/A,,Clear,10,2013-03-15 17:13:00
12:34 PM,6.8,-2.2,67,30.12,10.0,NNE,13.8,-,N/A,,Clear,20,2013-03-15 17:34:00
12:53 PM,6.8,-2.2,67,30.11,10.0,NNE,11.5,-,N/A,,Clear,20,2013-03-15 17:53:00
1:13 PM,6.8,-2.2,67,30.11,10.0,North,11.5,-,N/A,,Clear,10,2013-03-15 18:13:00
1:33 PM,8.6,-2.2,62,30.11,10.0,North,10.4,-,N/A,,Clear,10,2013-03-15 18:33:00
1:53 PM,8.6,-2.2,62,30.09,10.0,North,11.5,-,N/A,,Scattered Clouds,10,2013-03-15 18:53:00
2:14 PM,8.6,-2.2,62,30.09,10.0,North,11.5,-,N/A,,Scattered Clouds,10,2013-03-15 19:14:00
2:33 PM,8.6,-2.2,62,30.09,10.0,North,10.4,-,N/A,,Scattered Clouds,10,2013-03-15 19:33:00
2:53 PM,8.6,-2.2,62,30.09,10.0,North,10.4,-,N/A,,Clear,360,2013-03-15 19:53:00
3:14 PM,8.6,-4.0,57,30.08,10.0,North,11.5,-,N/A,,Scattered Clouds,10,2013-03-15 20:14:00
3:33 PM,8.6,-4.0,57,30.08,10.0,North,10.4,-,N/A,,Scattered Clouds,10,2013-03-15 20:33:00
3:53 PM,8.6,-4.0,57,30.08,10.0,North,11.5,-,N/A,,Scattered Clouds,10,2013-03-15 20:53:00
4:14 PM,8.6,-5.8,52,30.08,10.0,North,11.5,-,N/A,,Scattered Clouds,10,2013-03-15 21:14:00
4:33 PM,10.4,-5.8,48,30.09,10.0,NE,10.4,-,N/A,,Scattered Clouds,40,2013-03-15 21:33:00
4:53 PM,10.4,-5.8,48,30.09,10.0,NNE,8.1,-,N/A,,Scattered Clouds,20,2013-03-15 21:53:00
5:14 PM,10.4,-7.6,44,30.09,10.0,NNE,10.4,-,N/A,,Mostly Cloudy,20,2013-03-15 22:14:00
5:33 PM,10.4,-4.0,52,30.09,5.0,NNE,9.2,-,N/A,,Haze,20,2013-03-15 22:33:00
5:53 PM,10.4,-2.2,57,30.08,10.0,North,4.6,-,N/A,,Overcast,360,2013-03-15 22:53:00
6:14 PM,10.4,-4.0,52,30.08,10.0,NNE,9.2,-,N/A,,Overcast,20,2013-03-15 23:14:00
6:33 PM,10.4,-5.8,48,30.08,10.0,North,8.1,-,N/A,,Overcast,10,2013-03-15 23:33:00
6:54 PM,10.4,-5.8,48,30.08,7.0,NNE,10.4,-,N/A,Snow,Light Snow,20,2013-03-15 23:54:00
7:13 PM,10.4,-2.2,57,30.08,10.0,NNE,9.2,-,N/A,Snow,Light Snow,20,2013-03-16 00:13:00
7:33 PM,10.4,-0.4,62,30.08,7.0,NNE,6.9,-,N/A,,Overcast,20,2013-03-16 00:33:00
7:54 PM,8.6,-0.4,67,30.08,4.0,NNE,8.1,-,N/A,Snow,Light Snow,20,2013-03-16 00:54:00
8:13 PM,8.6,-0.4,67,30.09,5.0,North,8.1,-,N/A,Snow,Light Snow,10,2013-03-16 01:13:00
8:33 PM,8.6,-0.4,67,30.09,4.0,North,9.2,-,N/A,Snow,Light Snow,10,2013-03-16 01:33:00
8:54 PM,8.6,-0.4,67,30.09,5.0,North,10.4,-,N/A,Snow,Light Snow,360,2013-03-16 01:54:00
9:13 PM,8.6,-0.4,67,30.09,5.0,North,8.1,-,N/A,Snow,Light Snow,360,2013-03-16 02:13:00
9:54 PM,6.8,1.4,79,30.10,5.0,North,5.8,-,N/A,Snow,Light Snow,350,2013-03-16 02:54:00
10:13 PM,6.8,1.4,79,30.11,10.0,North,5.8,-,N/A,Snow,Light Snow,350,2013-03-16 03:13:00
10:33 PM,6.8,1.4,79,30.11,5.0,NNW,5.8,-,N/A,Snow,Light Snow,340,2013-03-16 03:33:00
10:54 PM,6.8,1.4,79,30.10,7.0,NNW,4.6,-,N/A,Snow,Light Snow,330,2013-03-16 03:54:00
11:13 PM,6.8,1.4,79,30.11,7.0,NNW,6.9,-,N/A,,Overcast,340,2013-03-16 04:13:00
11:33 PM,6.8,1.4,79,30.11,5.0,NNW,5.8,-,N/A,,Overcast,340,2013-03-16 04:33:00
11:54 PM,5.0,1.4,85,30.11,7.0,NNW,5.8,-,N/A,,Overcast,330,2013-03-16 04:54:00